map of YBR home
YBR - Airport
Location
City:  Brandon, Manitoba, Canada
Name:Brandon Municipal Airport
Old (Alt.):McGill Field
ICAO:CYBR
IATA:YBR

Details
Type:Airport (Airfield)
Use:Public/Civil
Latitude:4954'36"N (49.910000)
Longitude:9957'08"W (-99.952221)
Elevation:1343 ft (409 m)
Variation:5.34E (WMM2015v2 magnetic declination)
-0.06 annual change
Runways:2
Longest:6510 ft (1984 m), paved

Time
Time Zone:UTC-6 (DST-5)
Local Time:

Weather
METAR:CYBR 041400Z 04013KT 1SM -SN OVC024 M24/M28 A3019 RMK SN5SC3 SLP277
TAF:CYBR 041143Z 0412/0424 03012KT 3/4SM -SN VV008
TEMPO 0412/0417 4SM -SN OVC015
FM041700 02010KT P6SM SCT015 BKN080
TEMPO 0417/0424 4SM -SN BKN015 OVC080
RMK NXT FCST BY 041800Z

Related Locations
Nearby:
Farthest:YWKS: 10834 mi / 17436 km
Wilkins Runway (Casey), Upper Peterson Glacier, AQ

Find:

   beyond  
but within

Other Information
Maps:
NOTAMs:
Links:
Sources:

  
  • flag of Canada
  • flag of Manitoba
  

Airport Diagram

Airport diagram for YBR

Airport diagram PDF

Sectional Chart

Flight Planning
at skyvector.com

Satellite Image

Google Maps Satellite view

 

Copyright © 2004-2019 Karl L. Swartz. All rights reserved.
The Great Circle Mapper name and logo are trademarks of the Great Circle Mapper.
All other trademarks mentioned herein belong to their respective owners.
Please see credits for attibutions and further copyright information.

  Follow gcmap on Facebook Follow gcmap on Twitter GCmap on LinkedIn

hCard Microformat

Geo Microformat